Weather History for KMRY - October, 2014

Change the Weather History Date:

Friday, October 17, 2014

  Actual Average Record
Temperature  
Mean Temperature 62 °F 59 °F  
Max Temperature 73 °F 67 °F 82 °F (2008)
Min Temperature 51 °F 50 °F 46 °F (1998)
Degree Days  
Heating Degree Days 3    
Month to date heating degree days 36  
Since 1 July heating degree days 174  
Cooling Degree Days 0    
Month to date cooling degree days 41  
Year to date cooling degree days 139  
Growing Degree Days 12 (Base 50)    
Moisture  
Dew Point 47 °F    
Average Humidity 58    
Maximum Humidity 77    
Minimum Humidity 38    
Precipitation  
Precipitation 0.00 in - 0.68 in (2004)
Month to date precipitation 0.02  
Year to date precipitation 7.78  
Since 1 July precipitation 0.39  
Sea Level Pressure  
Sea Level Pressure 30.00 in    
Wind  
Wind Speed 4 mph (East)    
Max Wind Speed 16 mph    
Max Gust Speed 21 mph    
Visibility 10 miles    
Events      
T = Trace of Precipitation, MM = Missing Value Source: NWS Daily Summary

Daily Weather History Graph

Daily Weather History Graph

Search for Another Location

Airport or City:

Trip Planner

Search our weather history database for the weather conditions in past years. The results will help you decide how hot, cold, wet, or windy it might be!

Date:

Astronomy

Oct. 17, 2014 Rise Set
Actual Time 7:16 AM PDT 6:28 PM PDT
Civil Twilight 6:50 AM PDT 6:54 PM PDT
Nautical Twilight 6:20 AM PDT 7:24 PM PDT
Astronomical Twilight 5:50 AM PDT 7:54 PM PDT
Moon 1:34 AM PDT (10/17) 3:10 PM PDT (10/17)
Length of Visible Light 12h 03m
Length of Day
11h 11m
Waning Crescent, 32% of the Moon is Illuminated
Oct 17
Waning Crescent
Oct 23
New
Oct 30
First Quarter
Nov 6
Full
Nov 14
Last Quarter

Hourly Weather History & Observations

Time (PDT) Temp. Dew Point Humidity Pressure Visibility Wind Dir Wind Speed Gust Speed Precip Events Conditions
12:54 AM 55.9 °F 45.0 °F 67% 30.00 in 10.0 mi East 4.6 mph - N/A   Clear
1:54 AM 55.0 °F 44.1 °F 67% 30.00 in 10.0 mi Calm Calm - N/A   Clear
2:54 AM 54.0 °F 44.1 °F 69% 30.00 in 10.0 mi East 5.8 mph - N/A   Clear
3:54 AM 55.0 °F 43.0 °F 64% 29.99 in 10.0 mi East 4.6 mph - N/A   Clear
4:54 AM 57.0 °F 42.1 °F 57% 29.99 in 10.0 mi ESE 3.5 mph - N/A   Clear
5:54 AM 52.0 °F 42.1 °F 69% 29.99 in 10.0 mi ENE 3.5 mph - N/A   Clear
6:54 AM 53.1 °F 42.1 °F 66% 30.00 in 10.0 mi Calm Calm - N/A   Clear
7:54 AM 54.0 °F 42.1 °F 64% 30.00 in 10.0 mi East 5.8 mph - N/A   Clear
8:54 AM 63.0 °F 42.1 °F 46% 30.03 in 10.0 mi Calm Calm - N/A   Clear
9:54 AM 66.9 °F 44.1 °F 44% 30.03 in 10.0 mi NNW 3.5 mph - N/A   Clear
10:54 AM 68.0 °F 48.9 °F 50% 30.03 in 10.0 mi North 4.6 mph - N/A   Clear
11:54 AM 68.0 °F 48.9 °F 50% 30.02 in 10.0 mi NW 3.5 mph - N/A   Mostly Cloudy
12:54 PM 69.1 °F 48.9 °F 49% 30.01 in 10.0 mi West 9.2 mph - N/A   Clear
1:54 PM 70.0 °F 50.0 °F 49% 29.99 in 10.0 mi SW 6.9 mph - N/A   Clear
2:17 PM 69.8 °F 46.4 °F 43% 29.96 in 10.0 mi SSW 13.8 mph 20.7 mph N/A   Clear
2:54 PM 72.0 °F 46.0 °F 40% 29.98 in 10.0 mi SSW 10.4 mph - N/A   Clear
3:54 PM 72.0 °F 46.0 °F 40% 29.98 in 10.0 mi Variable 5.8 mph - N/A   Clear
4:54 PM 73.0 °F 46.0 °F 38% 29.98 in 10.0 mi WSW 6.9 mph - N/A   Clear
5:54 PM 72.0 °F 48.0 °F 43% 29.98 in 10.0 mi Calm Calm - N/A   Clear
6:54 PM 68.0 °F 51.1 °F 55% 29.99 in 10.0 mi ESE 8.1 mph - N/A   Clear
7:54 PM 64.0 °F 51.1 °F 63% 30.01 in 10.0 mi ENE 4.6 mph - N/A   Clear
8:54 PM 62.1 °F 51.1 °F 67% 30.02 in 10.0 mi East 4.6 mph - N/A   Clear
9:54 PM 60.1 °F 50.0 °F 69% 30.02 in 10.0 mi East 4.6 mph - N/A   Clear
10:54 PM 60.1 °F 51.1 °F 72% 30.03 in 10.0 mi ESE 4.6 mph - N/A   Clear
11:54 PM 57.9 °F 50.0 °F 75% 30.03 in 10.0 mi ENE 3.5 mph - N/A   Clear